Simultaneous Nadir Overpasses (SNOs) Predictions

Prediction of SNOs between AQUA and METOP-B Satellite Orbit:

Table of predicted SNOs for the next 14.0 days since TLE Epoch: 4/24/2021
Index Date (AQUA) Time (AQUA) Lat,Lon (AQUA) SZA (AQUA ) Date (METOP-B) Time (METOP-B) Lat,Lon (METOP-B) SZA (METOP-B ) Distance(km) Time Diff (sec)
1 04/24/2021 21:29:11 73.76,-147.94 60.58 04/24/2021 21:28:04 73.75,-147.96 60.58 1.99 67
2 04/24/2021 22:18:38 -73.85, 19.53 119.34 04/24/2021 22:18:44 -73.82, 19.54 119.37 3.26 6
3 04/24/2021 23:08:09 74.02,-173.23 60.83 04/24/2021 23:09:20 74.03,-172.62 60.82 18.70 71
4 04/27/2021 17:03:24 73.74, -81.44 59.65 04/27/2021 17:02:28 73.76, -81.53 59.68 3.29 56
5 04/27/2021 17:52:51 -73.82, 86.03 120.28 04/27/2021 17:53:08 -73.83, 85.98 120.26 2.54 17
6 04/27/2021 18:42:30 74.41,-107.70 60.35 04/27/2021 18:43:37 74.38,-105.32 60.25 71.13 67
7 04/30/2021 12:37:39 73.78, -15.08 58.81 04/30/2021 12:36:53 73.76, -15.11 58.81 1.45 46
8 04/30/2021 13:27:06 -73.84, 152.41 121.13 04/30/2021 13:27:33 -73.85, 152.41 121.13 0.16 27
9 05/03/2021 08:11:53 73.77, 51.38 57.96 05/03/2021 08:11:18 73.77, 51.31 57.97 2.29 35
10 05/03/2021 09:01:21 -73.88,-141.23 121.93 05/03/2021 09:01:58 -73.86,-141.16 121.96 3.34 37
11 05/06/2021 03:46:07 73.76, 117.82 57.15 05/06/2021 03:45:43 73.77, 117.72 57.17 3.46 24
12 05/06/2021 04:35:34 -73.87, -74.77 122.75 05/06/2021 04:36:22 -73.86, -74.74 122.76 1.20 48



Historial Predications of SNOs between AQUA and METOP-B
